New River MCAS, NC

2:46 PM EDT on August 18, 2017 (GMT -0400)
New River Marine Corps Air Station

Weather History for KNCA - January, 2013

Change the Weather History Date:

Wednesday, January 2, 2013

  Actual Average Record
Temperature  
Mean Temperature 49 °F -  
Max Temperature 54 °F 55 °F 75 °F (2000)
Min Temperature 43 °F 34 °F 24 °F (2001)
Degree Days  
Heating Degree Days 16    
Moisture  
Dew Point 46 °F    
Average Humidity 85    
Maximum Humidity 94    
Minimum Humidity 74    
Precipitation  
Precipitation 0.19 in - - ()
Sea Level Pressure  
Sea Level Pressure 30.03 in    
Wind  
Wind Speed 5 mph (NNE)    
Max Wind Speed 15 mph    
Max Gust Speed 21 mph    
Visibility 7 miles    
Events Rain    
Averages and records for this station are not official NWS values.
T = Trace of Precipitation, MM = Missing Value Source: NWS Daily Summary

Daily Weather History Graph

Daily Weather History Graph

Search for Another Location

Airport or City:

Trip Planner

Search our weather history database for the weather conditions in past years. The results will help you decide how hot, cold, wet, or windy it might be!

Date:

Astronomy

Jan. 02, 2013 Rise Set
Actual Time 7:17 AM EST 5:10 PM EST
Civil Twilight 6:49 AM EST 5:38 PM EST
Nautical Twilight 6:17 AM EST 6:10 PM EST
Astronomical Twilight 5:47 AM EST 6:40 PM EST
Moon 10:26 PM EST (1/2) 10:11 AM EST (1/2)
Length of Visible Light 10h 49m
Length of Day
9h 53m
Waning Gibbous, 75% of the Moon is Illuminated
Jan 2
Waning Gibbous
Jan 4
Last Quarter
Jan 11
New
Jan 18
First Quarter
Jan 26
Full

Hourly Weather History & Observations

Time (EST) Temp. Windchill Dew Point Humidity Pressure Visibility Wind Dir Wind Speed Gust Speed Precip Events Conditions
12:30 AM 53.6 °F - 51.8 °F 94% 29.97 in 5.0 mi Calm Calm - 0.00 in Rain Light Rain
12:52 AM 53.6 °F - 51.8 °F 94% 29.94 in 2.5 mi ENE 4.6 mph - 0.00 in Rain Light Rain
12:56 AM 54.0 °F - 51.1 °F 90% 29.94 in 2.5 mi ENE 4.6 mph - 0.00 in Rain Light Rain
1:45 AM 53.6 °F - 51.8 °F 94% 29.93 in 1.0 mi NE 3.5 mph - N/A   Overcast
1:56 AM 54.0 °F - 51.1 °F 90% 29.94 in 1.0 mi Calm Calm - N/A   Overcast
2:06 AM 53.6 °F - 51.8 °F 94% 29.94 in 2.0 mi North 4.6 mph - N/A   Overcast
2:19 AM 53.6 °F - 51.8 °F 94% 29.93 in 2.5 mi NNE 3.5 mph - 0.01 in Rain Light Rain
2:51 AM 53.6 °F - 51.8 °F 94% 29.93 in 2.5 mi Calm Calm - 0.01 in   Overcast
2:56 AM 54.0 °F - 51.1 °F 90% 29.94 in 2.5 mi Calm Calm - 0.01 in   Overcast
3:27 AM 53.6 °F - 51.8 °F 94% 29.94 in 2.5 mi Variable 3.5 mph - 0.02 in Rain Light Rain
3:34 AM 53.6 °F - 51.8 °F 94% 29.94 in 4.0 mi Calm Calm - 0.02 in Rain Light Rain
3:56 AM 54.0 °F - 51.1 °F 90% 29.95 in 2.0 mi North 3.5 mph - 0.06 in Rain Light Rain
4:27 AM 53.6 °F - 50.0 °F 88% 29.92 in 3.0 mi ENE 4.6 mph - 0.04 in Rain Light Rain
4:35 AM 53.6 °F - 51.8 °F 94% 29.92 in 3.0 mi ENE 4.6 mph - 0.05 in Rain Light Rain
4:47 AM 53.6 °F - 51.8 °F 94% 29.92 in 3.0 mi Calm Calm - 0.07 in Rain Rain
4:56 AM 53.1 °F - 50.0 °F 89% 29.94 in 3.0 mi NNE 5.8 mph - 0.08 in Rain Rain
5:00 AM 53.6 °F - 50.0 °F 88% 29.92 in 2.5 mi Variable 3.5 mph - 0.01 in Rain Rain
5:10 AM 53.6 °F - 51.8 °F 94% 29.93 in 2.5 mi North 4.6 mph - 0.04 in Rain Rain
5:21 AM 53.6 °F - 50.0 °F 88% 29.93 in 2.5 mi North 5.8 mph - 0.07 in Rain Rain
5:30 AM 53.6 °F - 50.0 °F 88% 29.94 in 4.0 mi NNE 3.5 mph - 0.08 in Rain Light Rain
6:21 AM 53.6 °F - 50.0 °F 88% 29.91 in 8.0 mi ESE 4.6 mph - 0.01 in Rain Light Rain
6:30 AM 53.6 °F - 50.0 °F 88% 29.90 in 9.0 mi ESE 6.9 mph - 0.01 in Rain Light Rain
6:56 AM 52.0 °F - 48.9 °F 89% 29.96 in 10.0 mi NNE 13.8 mph - 0.01 in Rain Light Rain
8:02 AM 50.0 °F - 46.4 °F 87% 29.99 in 1.8 mi NNE 9.2 mph - 0.01 in Rain Light Rain
8:12 AM 50.0 °F - 46.4 °F 87% 30.00 in 2.0 mi North 10.4 mph - 0.01 in Rain Light Rain
8:45 AM 50.0 °F - 46.4 °F 87% 30.02 in 5.0 mi North 12.7 mph - 0.02 in Rain Light Rain
8:56 AM 50.0 °F - 46.0 °F 86% 30.03 in 7.0 mi NNE 10.4 mph - 0.02 in   Overcast
9:36 AM 50.0 °F - 46.4 °F 87% 30.03 in 2.5 mi NNE 8.1 mph - 0.01 in Rain Light Rain
9:43 AM 50.0 °F - 46.4 °F 87% 30.04 in 4.0 mi NNE 12.7 mph - 0.01 in Rain Light Rain
9:56 AM 48.9 °F - 45.0 °F 86% 30.06 in 8.0 mi NNE 11.5 mph 20.7 mph 0.01 in   Overcast
10:17 AM 50.0 °F - 44.6 °F 82% 30.05 in 8.0 mi NNE 10.4 mph - N/A   Overcast
10:38 AM 50.0 °F - 44.6 °F 82% 30.06 in 10.0 mi NNE 10.4 mph - N/A   Overcast
10:56 AM 50.0 °F - 45.0 °F 83% 30.07 in 10.0 mi NNE 10.4 mph - N/A   Overcast
11:39 AM 50.0 °F - 44.6 °F 82% 30.05 in 10.0 mi ENE 5.8 mph - 0.00 in   Overcast
11:56 AM 50.0 °F - 45.0 °F 83% 30.04 in 10.0 mi East 3.5 mph - 0.00 in   Overcast
12:17 PM 51.8 °F - 44.6 °F 76% 30.03 in 10.0 mi NE 4.6 mph - N/A   Overcast
12:34 PM 51.8 °F - 46.4 °F 82% 30.03 in 10.0 mi North 8.1 mph - N/A   Overcast
12:56 PM 52.0 °F - 45.0 °F 77% 30.04 in 10.0 mi North 10.4 mph - N/A   Overcast
1:23 PM 51.8 °F - 44.6 °F 76% 30.03 in 10.0 mi North 10.4 mph - N/A   Overcast
1:56 PM 51.1 °F - 43.0 °F 74% 30.05 in 10.0 mi North 11.5 mph - N/A   Overcast
2:24 PM 50.0 °F - 42.8 °F 76% 30.05 in 10.0 mi North 11.5 mph - N/A   Overcast
2:56 PM 48.9 °F - 42.1 °F 77% 30.07 in 10.0 mi NE 15.0 mph - N/A   Overcast
3:26 PM 48.2 °F - 42.8 °F 82% 30.08 in 10.0 mi NNE 11.5 mph - N/A   Overcast
3:56 PM 46.9 °F - 42.1 °F 83% 30.10 in 10.0 mi NNE 10.4 mph - N/A   Overcast
4:04 PM 46.4 °F 41.1 °F 41.0 °F 81% 30.10 in 9.0 mi North 11.5 mph - N/A   Overcast
4:25 PM 46.4 °F 42.9 °F 41.0 °F 81% 30.10 in 10.0 mi NNE 6.9 mph - N/A   Overcast
4:56 PM 46.0 °F 42.5 °F 41.0 °F 83% 30.12 in 10.0 mi NNE 6.9 mph - N/A   Overcast
5:56 PM 45.0 °F 40.6 °F 39.0 °F 80% 30.14 in 10.0 mi NNE 8.1 mph - N/A   Overcast
6:26 PM 44.6 °F 38.8 °F 39.2 °F 81% 30.14 in 10.0 mi NNE 11.5 mph - N/A   Overcast
6:56 PM 45.0 °F 41.2 °F 39.0 °F 80% 30.16 in 10.0 mi North 6.9 mph - N/A   Overcast
7:56 PM 45.0 °F 40.1 °F 37.9 °F 76% 30.17 in 10.0 mi NNE 9.2 mph - N/A   Overcast
8:56 PM 44.1 °F 39.0 °F 37.9 °F 79% 30.18 in 10.0 mi NNE 9.2 mph - N/A   Overcast
9:53 PM 44.6 °F 40.7 °F 37.4 °F 76% 30.18 in 10.0 mi ENE 6.9 mph - N/A   Overcast
9:56 PM 44.1 °F 39.0 °F 37.0 °F 76% 30.19 in 10.0 mi NE 9.2 mph - N/A   Overcast
10:52 PM 44.6 °F 40.7 °F 37.4 °F 76% 30.20 in 10.0 mi NE 6.9 mph - N/A   Overcast
10:56 PM 44.1 °F 39.5 °F 37.0 °F 76% 30.19 in 10.0 mi ENE 8.1 mph - N/A   Overcast
11:56 PM 43.0 °F 39.5 °F 36.0 °F 76% 30.22 in 8.0 mi NE 5.8 mph - N/A   Overcast